DECAYED

STARLINK-30090, 56293 (Decayed)

Orbit data source: Space-Track

STARLINK-30090, 56293 was a payload satellite owned by SpaceX/Seattle (US) in LEO that was launched on Wed, 19 Apr 2023 UTC via an FALCON 9 launch vehicle from the Air Force Eastern Test Range (AFETR). Payload-class satellites include a variety of spacecraft equipped with specific instruments for various scientific and technological missions. These include communications satellites like Starlink; space stations such as the ISS; scientific satellites like the Hubble; Earth observation satellites from companies like Planet Labs, Umbra, and HawkEye 360; GPS; miniature CubeSats for education and research; and military/defense satellites.

Not visible in the next 10 days
Identifier
56293, 2023-056H
Orbit
Decayed
Country
Flag of USUS
Related business
Manufacturer
SpaceX/Seattle
Mission
Decayed Commercial Communications
Bus & Motor
STARLINK V2M, Unknown motor
Mass
730 kg wet, ~700 kg dry
Launch date (UTC)
2023-04-19 (3 years ago)
Launch vehicle
FALCON 9
Launch site
Air Force Eastern Test Range (AFETR)
Object type
Payload
Rocket body
Debris
Shape & HBR
Box + 2 Pan, 17.7 m
Radar Cross Section
33.884 m², Large (>1 m²)

Expand to show TLE details & history
Last TLE update: 2 months ago

TLE from 2 months ago
0 STARLINK-30090
1 56293U 23056H   26097.54265156  .01437191  14490-2  13212-2 0  9996
2 56293  42.9966  36.1718 0002902 241.3708 118.6883 16.11824915164562
Epoch: 2026-04-07T13:01Z
TLE epoch observation values (Epoch: 2026-04-07T13:01:25.094Z)
Latitude
-0.00003°
Longitude
4.99934°
Altitude
242.531 km
Speed
7.763 km/s
True Right ascension
02h 24m 41s
True Declination
0° 00' 00"
Sunlit
Object was in daylight at epoch
Visualization orbit readout
Latitude
Unknown
Longitude
Unknown
Altitude
Unknown
Speed
Unknown
Apparent Right ascension
Unknown
Apparent Declination
Unknown
Sunlit
N/A
Visualization observer readout
Local Sidereal Time
21:35:00
Azimuth
Unknown
Elevation
Unknown
Doppler factor
Unknown
Orbital elements
Apogee altitude
245.78 km
Perigee altitude
241.936 km
Semi-major axis
6,621.995 km
Eccentricity
0.00029
Inclination
42.9966°
RAAN
36.1718°
Arg. of periapsis
241.3708°
True anomaly
118.71747°
Mean anomaly
118.6883°
Eccentric anomaly
118.70288°
Mean motion
4.02773 °/min
Orbital period
89.38 mins
BSTAR
0.0013212
Loading maneuver chart data...
Computing Atmospheric mass density...
Loading historical data...
Loading historical data...
Loading historical data...
Loading historical data...
Loading historical data...
Loading historical data...
Loading historical data...

Documentation

Showing up to 5 results
|